Location: Newark
(46.8486°N, 30.0792°E)
Time: 08:46:29
(UTC+00:00)

Envisat - Visible Passes

Search period start: 17 October 2019 00:00
Search period end: 27 October 2019 00:00
Orbit: 764 x 766 km, 98.1° (Epoch: 17 October)

Date Brightness Start Highest point End Pass type
(mag) Time Alt. Az. Time Alt. Az. Time Alt. Az.
17 Oct 3.1 16:02:45 10° SSE 16:07:50 83° WSW 16:12:57 10° NNW visible
17 Oct 6.2 17:46:11 10° WSW 17:47:39 11° W 17:49:07 10° WNW visible
18 Oct 5.4 17:06:22 10° SW 17:10:25 24° W 17:14:30 10° NW visible
19 Oct 6.4 03:33:51 10° ENE 03:36:16 13° E 03:38:41 10° ESE visible
19 Oct 4.0 16:28:29 10° S 16:33:24 49° W 16:38:21 10° NNW visible
20 Oct 3.0 15:51:30 10° SSE 15:56:34 81° ENE 16:01:41 10° NNW visible
20 Oct 6.0 17:33:34 10° WSW 17:36:14 14° W 17:38:55 10° NW visible
21 Oct 5.0 16:54:39 10° SSW 16:59:03 29° W 17:03:30 10° NW visible
22 Oct 6.7 03:24:03 10° ENE 03:24:51 10° E 03:25:38 10° E visible
22 Oct 3.6 16:17:04 10° S 16:22:06 61° W 16:27:09 10° NNW visible
23 Oct 3.0 15:40:19 10° SSE 15:45:20 65° ENE 15:50:23 10° N visible
23 Oct 5.8 17:21:26 10° SW 17:24:49 18° W 17:28:13 10° NW visible
24 Oct 6.1 03:47:14 10° NE 03:50:43 18° E 03:54:10 10° SE visible
24 Oct 4.6 16:43:03 10° SSW 16:47:42 36° W 16:52:25 10° NNW visible
25 Oct 3.2 16:05:44 10° S 16:10:48 76° WSW 16:15:56 10° NNW visible
25 Oct 6.3 17:50:34 10° W 17:50:41 10° W 17:50:48 10° W visible
26 Oct 3.1 15:29:11 10° SE 15:34:06 53° ENE 15:39:03 10° N visible
26 Oct 5.5 17:09:32 10° SW 17:13:26 22° W 17:17:21 10° NW visible
